time_stamp(utc),avg(mph),gust(mph),direction(deg),12m_air_temp(f),sonic_u(cm/s),sonic_v(cm/s),sonic_w(cm/s),pressure,2m_air_temp(f),pyranometer(W/m^2)
"2019-04-29 00:01:24+00",17.3,19.3,,52.4,459,563,16,1019.19,52.2,0
"2019-04-29 00:06:24+00",16.6,18.6,,52.4,378,611,9,1019.39,52.2,0
"2019-04-29 00:11:24+00",14.2,17.2,,52.5,317,530,7,1019.48,52.2,0
"2019-04-29 00:16:24+00",14.6,16.6,,52.6,328,531,5,1019.61,52.2,0
"2019-04-29 00:21:24+00",11.6,14.6,,52.7,156,456,12,1019.8,52.3,0
"2019-04-29 00:26:24+00",13.0,15.0,,52.7,167,520,19,1019.96,52.3,0
"2019-04-29 00:31:24+00",12.5,15.5,,52.6,123,509,14,1020.15,52.3,0
"2019-04-29 00:36:24+00",17.4,20.4,,52.7,64,753,4,1020.34,52.3,0
"2019-04-29 00:41:24+00",14.9,16.9,,52.6,38,641,17,1020.45,52.3,0
"2019-04-29 00:46:24+00",16.2,17.2,,52.6,37,707,7,1020.55,52.2,0
"2019-04-29 00:51:24+00",13.3,14.3,,52.5,91,561,6,1020.71,52.2,0
"2019-04-29 00:56:24+00",17.0,20.0,,52.4,107,735,9,1020.84,52.1,0
"2019-04-29 01:01:24+00",19.0,22.0,,52.3,152,839,-46,1020.94,52,0
"2019-04-29 01:06:24+00",12.3,16.3,,52.2,133,522,-22,1021.12,51.9,0
"2019-04-29 01:11:24+00",15.1,18.1,,52.2,115,659,-31,1021.2,51.8,0
"2019-04-29 01:16:24+00",11.3,12.3,,52,77,486,-20,1021.26,51.6,0
"2019-04-29 01:21:24+00",12.5,14.5,,51.8,-32,541,-37,1021.43,51.4,0
"2019-04-29 01:26:24+00",13.6,15.6,,51.7,17,594,-34,1021.49,51.2,0
"2019-04-29 01:31:24+00",13.4,17.4,,51.4,-188,561,-5,1021.79,50.9,0
"2019-04-29 01:36:24+00",17.1,20.1,,51.2,-200,742,-23,1021.98,50.8,0
"2019-04-29 01:41:24+00",16.8,19.8,,51,-162,714,-27,1022.1,50.7,0
"2019-04-29 01:46:24+00",15.8,17.8,,50.6,-180,674,-21,1022.18,50.5,0
"2019-04-29 01:51:24+00",15.8,21.8,,50.3,-171,679,-24,1022.32,50.2,0
"2019-04-29 01:56:24+00",17.5,19.5,,50,-208,743,-23,1022.5,49.8,0
"2019-04-29 02:01:24+00",18.8,21.8,,49.8,-215,820,-34,1022.64,49.5,0
"2019-04-29 02:06:24+00",15.9,19.9,,49.7,-210,675,-13,1022.63,49.3,0
"2019-04-29 02:11:24+00",17.7,20.7,,49.6,-203,759,-15,1022.75,49.2,0
"2019-04-29 02:16:24+00",15.7,17.7,,49.5,-124,685,-44,1022.75,49,0
"2019-04-29 02:21:24+00",16.8,18.8,,49.4,-121,744,-32,1022.74,48.8,0
"2019-04-29 02:26:24+00",10.6,11.6,,49.2,-94,447,-22,1022.77,48.6,0
"2019-04-29 02:31:24+00",10.6,12.6,,49.1,-69,452,-44,1022.84,48.4,0
"2019-04-29 02:36:24+00",11.1,12.1,,48.9,-79,476,-36,1022.92,48.2,0
"2019-04-29 02:41:24+00",8.9,10.9,,48.7,-9,375,-44,1022.93,47.9,0
"2019-04-29 02:46:24+00",9.8,10.8,,48.6,-3,420,-42,1023.02,47.6,0
"2019-04-29 02:51:24+00",6.1,7.1,,48.4,-25,248,-26,1022.98,47.3,0
"2019-04-29 02:56:24+00",6.3,7.3,,48.3,-2,257,-36,1022.94,47,0
"2019-04-29 03:01:24+00",6.1,7.1,,48.2,5,249,-34,1023.06,46.8,0
"2019-04-29 03:06:24+00",6.9,7.9,,48.1,-10,274,-46,1023.09,46.5,0
"2019-04-29 03:11:24+00",7.0,7.0,,48.1,-1,274,-44,1023.16,46.2,0
"2019-04-29 03:16:24+00",8.5,8.5,,47.9,2,345,-52,1023.18,45.9,0
"2019-04-29 03:21:24+00",8.2,9.2,,47.7,-42,323,-46,1023.4,45.6,0
"2019-04-29 03:26:24+00",8.1,9.1,,47.7,-29,321,-40,1023.42,45.5,0
"2019-04-29 03:31:24+00",8.1,9.1,,47.6,-24,320,-46,1023.44,45.3,0
"2019-04-29 03:36:24+00",7.6,7.6,,47.5,-68,290,-35,1023.48,45.2,0
"2019-04-29 03:41:24+00",9.3,11.3,,47.5,-32,379,-42,1023.57,45.2,0
"2019-04-29 03:46:24+00",9.1,10.1,,47.4,-86,371,-36,1023.71,45.2,0
"2019-04-29 03:51:24+00",9.7,10.7,,47.3,-90,391,-36,1023.76,45.3,0
"2019-04-29 03:56:24+00",11.2,13.2,,47.3,-116,461,-34,1023.8,45.5,0
"2019-04-29 04:01:24+00",12.5,14.5,,47.2,-147,518,-32,1023.77,45.7,0
"2019-04-29 04:06:24+00",13.1,14.1,,47.3,-121,557,-30,1023.77,45.9,0
"2019-04-29 04:11:24+00",12.2,13.2,,47,-150,502,-27,1023.89,45.9,0
"2019-04-29 04:16:24+00",11.7,14.7,,46.6,-166,474,-25,1023.91,45.9,0
"2019-04-29 04:21:24+00",12.1,14.1,,46.3,-164,503,-29,1024.04,45.7,0
"2019-04-29 04:26:24+00",13.0,15.0,,46,-156,532,-28,1024.05,45.5,0
"2019-04-29 04:31:24+00",12.1,13.1,,46,-159,507,-23,1024.17,45.3,0
"2019-04-29 04:36:24+00",12.2,14.2,,46.1,-158,507,-17,1024.31,45.2,0
"2019-04-29 04:41:24+00",13.7,17.7,,46.4,-171,576,-25,1024.34,45.3,0
"2019-04-29 04:46:24+00",16.6,18.6,,46.5,-186,714,-24,1024.37,45.4,0
"2019-04-29 04:51:24+00",16.3,18.3,,46.4,-140,719,-36,1024.38,45.5,0
"2019-04-29 04:56:24+00",17.6,20.6,,46.5,-169,757,-24,1024.34,45.5,0
"2019-04-29 05:01:24+00",17.2,19.2,,46.6,-180,741,-14,1024.28,45.6,0
"2019-04-29 05:06:24+00",18.2,22.2,,46.5,-29,814,-24,1024.32,45.5,0
"2019-04-29 05:11:24+00",17.6,21.6,,46.2,-60,795,-19,1024.48,45.3,0
"2019-04-29 05:16:24+00",15.9,18.9,,45.9,-41,705,-18,1024.41,45.1,0
"2019-04-29 05:21:24+00",14.1,16.1,,45.7,-24,617,-20,1024.42,44.8,0
"2019-04-29 05:26:24+00",14.6,17.6,,45.4,-7,656,-17,1024.39,44.5,0
"2019-04-29 05:31:24+00",17.7,19.7,,45.4,51,797,-37,1024.4,44.3,0
"2019-04-29 05:36:24+00",17.2,18.2,,45.3,50,772,-53,1024.31,44.2,0
"2019-04-29 05:41:24+00",14.1,16.1,,45.2,-6,622,-32,1024.41,44.2,0
"2019-04-29 05:46:24+00",14.4,16.4,,45.1,10,629,-51,1024.31,44,0
"2019-04-29 05:51:24+00",13.9,15.9,,44.8,2,613,-43,1024.21,43.9,0
"2019-04-29 05:56:24+00",14.9,17.9,,44.7,18,665,-38,1024.21,43.7,0
"2019-04-29 06:01:24+00",16.7,19.7,,44.7,57,749,-46,1024.3,43.6,0
"2019-04-29 06:06:24+00",17.1,20.1,,44.6,2,760,-48,1024.24,43.5,0
"2019-04-29 06:11:24+00",17.6,19.6,,44.5,-64,789,-46,1024.21,43.4,0
"2019-04-29 06:16:24+00",17.2,19.2,,44.3,-70,770,-34,1024.17,43.3,0
"2019-04-29 06:21:24+00",18.7,22.7,,44.3,-19,839,-2,1024.16,43.2,0
"2019-04-29 06:26:24+00",21.6,25.6,,44.4,-52,984,-31,1024.2,43.2,0
"2019-04-29 06:31:24+00",21.0,25.0,,44.2,7,957,-13,1024.17,43.2,0
"2019-04-29 06:36:24+00",22.8,25.8,,43.9,5,1034,-14,1024.26,43,0
"2019-04-29 06:41:24+00",18.5,22.5,,43.7,-5,847,-8,1024.3,42.8,0
"2019-04-29 06:46:24+00",18.7,22.7,,43.6,18,847,-14,1024.38,42.6,0
"2019-04-29 06:51:24+00",19.3,22.3,,43.4,13,873,-16,1024.36,42.5,0
"2019-04-29 06:56:24+00",17.5,19.5,,43.2,7,786,-30,1024.39,42.2,0
"2019-04-29 07:01:24+00",16.1,18.1,,43.1,-2,718,-24,1024.31,42.1,0
"2019-04-29 07:06:24+00",19.5,21.5,,42.9,12,888,-62,1024.37,41.9,0
"2019-04-29 07:11:24+00",18.8,21.8,,42.8,24,845,-50,1024.21,41.8,0
"2019-04-29 07:16:24+00",15.7,19.7,,42.6,49,703,-31,1024.37,41.6,0
"2019-04-29 07:21:24+00",15.8,18.8,,42.5,81,699,-49,1024.46,41.6,0
"2019-04-29 07:26:24+00",15.2,18.2,,42.5,67,673,-35,1024.43,41.5,0
"2019-04-29 07:31:24+00",14.9,17.9,,42.5,89,656,-39,1024.46,41.5,0
"2019-04-29 07:36:24+00",18.5,21.5,,42.5,150,806,-53,1024.43,41.4,0
"2019-04-29 07:41:24+00",20.1,24.1,,42.7,119,894,-41,1024.45,41.6,0
"2019-04-29 07:46:24+00",15.2,18.2,,42.7,107,656,-41,1024.49,41.7,0
"2019-04-29 07:51:24+00",16.3,18.3,,42.8,160,707,-44,1024.54,41.6,0
"2019-04-29 07:56:24+00",16.9,19.9,,42.9,145,724,-49,1024.73,41.7,0
"2019-04-29 08:01:24+00",13.6,15.6,,42.8,96,587,-35,1024.85,41.7,0
"2019-04-29 08:06:24+00",15.4,17.4,,42.9,138,663,-38,1024.88,41.7,0
"2019-04-29 08:11:24+00",11.3,15.3,,42.7,96,485,-28,1025.13,41.6,0
"2019-04-29 08:16:24+00",13.8,16.8,,42.8,144,576,-35,1025.26,41.5,0
"2019-04-29 08:21:24+00",11.2,14.2,,42.5,68,493,-29,1025.45,41.4,0
"2019-04-29 08:26:24+00",9.4,13.4,,42.4,83,384,-41,1025.67,41.1,0
"2019-04-29 08:31:24+00",8.7,10.7,,42.3,68,351,-36,1025.73,41,0
"2019-04-29 08:36:24+00",7.1,9.1,,42.2,117,248,-34,1025.7,40.9,0
"2019-04-29 08:41:24+00",9.4,11.4,,42.4,124,361,-64,1025.88,40.7,0
"2019-04-29 08:46:24+00",7.5,8.5,,42.4,133,259,-44,1026.06,40.6,0
"2019-04-29 08:51:24+00",10.7,12.7,,42.4,158,402,-52,1026.04,40.5,0
"2019-04-29 08:56:24+00",10.0,12.0,,42.5,196,356,-46,1026.11,40.7,0
"2019-04-29 09:01:24+00",11.7,12.7,,42.4,195,431,-56,1025.96,40.7,0
"2019-04-29 09:06:24+00",11.3,13.3,,42.3,204,416,-41,1026.07,40.6,0
"2019-04-29 09:11:24+00",10.7,11.7,,42.3,182,407,-38,1025.98,40.7,0
"2019-04-29 09:16:24+00",12.3,14.3,,42.4,168,482,-12,1025.94,40.9,0
"2019-04-29 09:21:24+00",11.7,13.7,,42.4,193,453,5,1026.1,40.9,0
"2019-04-29 09:26:24+00",8.0,10.0,,42.2,56,332,18,1026.12,40.8,0
"2019-04-29 09:31:24+00",7.2,8.2,,41.8,42,294,11,1026.29,40.5,0
"2019-04-29 09:36:24+00",10.0,11.0,,41.8,27,427,3,1026.35,40.2,0
"2019-04-29 09:41:24+00",9.9,10.9,,41.8,53,416,10,1026.6,40,0
"2019-04-29 09:46:24+00",11.1,12.1,,41.7,47,474,5,1026.62,39.9,0
"2019-04-29 09:51:24+00",9.2,11.2,,41.6,47,391,7,1026.84,39.8,0
"2019-04-29 09:56:24+00",8.6,10.6,,41.5,1,368,9,1027,39.7,0
"2019-04-29 10:01:24+00",9.2,10.2,,41.4,35,392,7,1026.95,39.5,0
"2019-04-29 10:06:24+00",7.4,8.4,,41.4,3,318,10,1027.23,39.4,0
"2019-04-29 10:11:24+00",9.4,10.4,,41.4,-5,401,13,1027.08,39.2,0
"2019-04-29 10:16:24+00",9.2,10.2,,41.4,12,395,4,1027.28,39.2,0
"2019-04-29 10:21:24+00",9.7,10.7,,41.4,-10,419,16,1027.28,39.3,0
"2019-04-29 10:26:24+00",10.3,12.3,,41.5,-50,444,13,1027.33,39.5,0.2
"2019-04-29 10:31:24+00",8.4,9.4,,41.2,-25,358,21,1027.32,39.8,3.2
"2019-04-29 10:36:24+00",9.3,10.3,,41.3,26,401,7,1027.33,40.2,10.6
"2019-04-29 10:41:24+00",9.5,10.5,,41.5,17,406,6,1027.33,40.7,15
"2019-04-29 10:46:24+00",7.8,9.8,,41.7,33,331,5,1027.47,41.3,27.3
"2019-04-29 10:51:24+00",8.0,10.0,,42,87,319,-4,1027.5,41.9,37.6
"2019-04-29 10:56:24+00",7.5,9.5,,42.4,82,307,13,1027.44,42.5,47.4
"2019-04-29 11:01:24+00",7.8,8.8,,42.7,72,325,9,1027.41,43,58.5
"2019-04-29 11:06:24+00",9.0,11.0,,43,97,358,-2,1027.55,43.5,69
"2019-04-29 11:11:24+00",9.9,10.9,,43.4,96,404,-6,1027.7,44.2,82.4
"2019-04-29 11:16:24+00",8.0,10.0,,43.8,159,288,15,1027.74,44.8,93.1
"2019-04-29 11:21:24+00",10.3,11.3,,44.1,200,384,-2,1027.73,45.4,105
"2019-04-29 11:26:24+00",11.1,12.1,,44.3,221,418,13,1027.97,45.9,117.1
"2019-04-29 11:31:24+00",11.2,13.2,,44.5,185,422,0,1027.76,46.2,84
"2019-04-29 11:36:24+00",9.9,11.9,,44.4,200,370,1,1027.81,46.3,20.2
"2019-04-29 11:41:24+00",10.5,12.5,,44.5,223,393,5,1027.7,46.5,138.7
"2019-04-29 11:46:24+00",7.6,9.6,,44.8,174,256,20,1027.9,46.9,159.6
"2019-04-29 11:51:24+00",6.9,8.9,,45.1,181,211,47,1027.89,47.3,168.4
"2019-04-29 11:56:24+00",9.1,10.1,,45.2,234,301,-8,1027.73,47.5,177.2
"2019-04-29 12:01:24+00",9.8,10.8,,45.5,286,292,7,1027.74,47.8,188
"2019-04-29 12:06:24+00",8.7,10.7,,46.2,238,270,22,1027.85,48.4,194.3
"2019-04-29 12:11:24+00",10.6,11.6,,46.5,259,361,-2,1027.81,49.1,205.8
"2019-04-29 12:16:24+00",11.9,13.9,,47.1,349,356,9,1027.82,49.5,215.2
"2019-04-29 12:21:24+00",12.5,14.5,,47,393,349,17,1027.84,49.9,224.7
"2019-04-29 12:26:24+00",12.7,13.7,,47.4,479,292,14,1028.06,50.5,230
"2019-04-29 12:31:24+00",11.1,12.1,,48.1,420,237,59,1028.19,51,238.7
"2019-04-29 12:36:24+00",11.1,13.1,,48.1,438,220,7,1028.19,51.2,245.6
"2019-04-29 12:41:24+00",11.2,13.2,,48.6,430,231,52,1028.22,51.7,255.3
"2019-04-29 12:46:24+00",12.4,17.4,,48.7,504,206,61,1028.27,51.9,250.1
"2019-04-29 12:51:24+00",15.8,17.8,,49,671,232,34,1028.23,52.2,270.5
"2019-04-29 12:56:24+00",16.0,19.0,,48.8,703,154,28,1028.33,52.3,274.6
"2019-04-29 13:01:24+00",16.0,19.0,,48.8,655,293,46,1028.33,52.2,278.6
"2019-04-29 13:06:24+00",16.1,18.1,,49,617,371,35,1028.59,52.6,290.7
"2019-04-29 13:11:24+00",16.0,17.0,,48.8,703,156,21,1028.85,52.5,296.4
"2019-04-29 13:16:24+00",14.5,16.5,,49.3,572,298,30,1029.14,52.7,292.5
"2019-04-29 13:21:24+00",14.5,16.5,,49.1,553,325,17,1029.34,53.1,311.4
"2019-04-29 13:26:24+00",16.9,19.9,,49.2,737,209,33,1028.94,53.1,321.1
"2019-04-29 13:31:24+00",16.6,19.6,,49.1,734,125,31,1028.8,53.2,330.1
"2019-04-29 13:36:24+00",13.0,15.0,,49.2,570,106,81,1028.74,53.3,339.2
"2019-04-29 13:41:24+00",16.7,18.7,,49,721,243,24,1028.81,53.3,351.3
"2019-04-29 13:46:24+00",14.0,16.0,,49.3,568,261,28,1029.14,53.7,363.1
"2019-04-29 13:51:24+00",15.2,17.2,,49,643,266,-3,1029.32,53.4,376.8
"2019-04-29 13:56:24+00",10.7,11.7,,49.1,417,221,17,1029.72,53.6,383.3
"2019-04-29 14:01:24+00",15.1,18.1,,49.4,663,146,51,1029.75,54,409.4
"2019-04-29 14:06:24+00",13.3,15.3,,49.5,583,121,34,1029.71,54.4,396.7
"2019-04-29 14:11:24+00",13.2,15.2,,49.6,497,301,35,1029.63,54.2,382.4
"2019-04-29 14:16:24+00",13.1,15.1,,49.5,562,211,32,1029.72,54.3,426.5
"2019-04-29 14:21:24+00",13.5,16.5,,49.5,554,217,30,1029.7,54.4,448.7
"2019-04-29 14:26:24+00",14.1,16.1,,49.5,619,116,49,1029.78,54.5,404.6
"2019-04-29 14:31:24+00",13.1,15.1,,49.4,573,97,26,1029.61,54.7,455.1
"2019-04-29 14:36:24+00",12.0,14.0,,49.7,533,63,33,1029.6,54.9,461.7
"2019-04-29 14:41:24+00",11.2,12.2,,49.7,497,71,29,1029.84,54.9,475.8
"2019-04-29 14:46:24+00",14.9,16.9,,49.5,653,137,28,1030,55.1,481.9
"2019-04-29 14:51:24+00",14.4,16.4,,49.6,617,174,9,1029.86,54.7,485.8
"2019-04-29 14:56:24+00",13.9,15.9,,50,619,56,38,1029.64,55.2,495.3
"2019-04-29 15:01:24+00",12.9,17.9,,49.7,572,43,46,1029.65,54.8,499.4
"2019-04-29 15:06:24+00",13.1,16.1,,49.6,571,86,-9,1029.68,54.9,510
"2019-04-29 15:11:24+00",14.1,16.1,,49.7,631,58,33,1029.64,55.1,512.3
"2019-04-29 15:16:24+00",12.8,14.8,,49.6,559,149,38,1029.64,55.3,513.9
"2019-04-29 15:21:24+00",13.5,15.5,,49.4,594,21,29,1029.64,55.1,524.3
"2019-04-29 15:26:24+00",14.8,15.8,,49.4,657,-80,43,1029.51,54.5,537.3
"2019-04-29 15:31:24+00",13.4,14.4,,49.3,514,262,43,1029.67,54.5,533.8
"2019-04-29 15:36:24+00",15.1,17.1,,49.5,677,19,5,1029.45,54.9,532
"2019-04-29 15:41:24+00",14.3,16.3,,49.4,636,17,33,1029.49,54.7,541.5
"2019-04-29 15:46:24+00",12.1,15.1,,49.5,544,27,22,1029.32,54.8,543
"2019-04-29 15:51:24+00",11.3,13.3,,49.8,492,114,55,1029.35,55.2,550.7
"2019-04-29 15:56:24+00",13.8,15.8,,49.5,582,206,23,1029.32,54.8,525.5
"2019-04-29 16:01:24+00",14.6,18.6,,49.9,649,-48,20,1029.22,54.8,546.7
"2019-04-29 16:06:24+00",12.4,14.4,,49.8,547,-71,30,1029.25,54.2,548.2
"2019-04-29 16:11:24+00",11.7,14.7,,50.2,516,77,39,1029.22,54.9,550.3
"2019-04-29 16:16:24+00",11.9,13.9,,50.1,525,-102,26,1029.33,54.8,549.2
"2019-04-29 16:21:24+00",14.1,15.1,,49.8,624,54,34,1029.15,55,570.4
"2019-04-29 16:26:24+00",14.6,15.6,,49.7,647,29,7,1029.13,54.9,558.5
"2019-04-29 16:31:24+00",12.8,15.8,,50,562,14,24,1029.1,54.8,566.8
"2019-04-29 16:36:24+00",12.8,15.8,,50.2,572,-38,21,1029.01,54.8,579.3
"2019-04-29 16:41:24+00",9.6,11.6,,49.9,420,-64,10,1029.08,54.6,582.5
"2019-04-29 16:46:24+00",11.1,14.1,,50.2,487,-17,46,1029.08,55,481.7
"2019-04-29 16:51:24+00",11.0,13.0,,49.7,488,-44,-16,1028.96,54.4,583.3
"2019-04-29 16:56:24+00",10.7,12.7,,49.6,464,-99,-2,1028.95,54.4,590.3
"2019-04-29 17:01:24+00",12.1,14.1,,49.7,511,-155,-21,1029.03,54.4,613.7
"2019-04-29 17:06:24+00",11.4,13.4,,49.7,491,-106,2,1028.95,54.3,662.3
"2019-04-29 17:11:24+00",12.5,14.5,,49.9,554,-13,24,1029.15,54.3,305.1
"2019-04-29 17:16:24+00",11.0,13.0,,49.6,484,-6,30,1029.11,54.3,293
"2019-04-29 17:21:24+00",10.7,12.7,,49.7,468,-77,1,1029.03,54.3,519.4
"2019-04-29 17:26:24+00",11.7,14.7,,50.2,471,-188,-4,1029.03,54.2,505.7
"2019-04-29 17:31:24+00",10.6,12.6,,49.9,453,-125,-5,1028.97,53.7,263.9
"2019-04-29 17:36:24+00",9.5,11.5,,50.4,374,-188,52,1028.92,53.7,615.7
"2019-04-29 17:41:24+00",9.7,13.7,,50.2,399,-118,25,1028.82,54.1,561
"2019-04-29 17:46:24+00",9.5,11.5,,49.9,328,-247,-16,1028.8,54,543.6
"2019-04-29 17:51:24+00",9.8,11.8,,50,437,-14,11,1028.79,54,574.4
"2019-04-29 17:56:24+00",11.5,13.5,,50.2,491,-106,45,1028.86,53.8,276.4
"2019-04-29 18:01:24+00",9.8,11.8,,50.2,387,-181,-14,1028.85,53.8,434.8
"2019-04-29 18:06:24+00",11.3,14.3,,49.9,456,-202,-4,1028.83,53.4,199.7
"2019-04-29 18:11:24+00",11.1,13.1,,50,386,-295,13,1028.78,53.1,347.2
"2019-04-29 18:16:24+00",11.6,12.6,,50,442,-248,15,1028.64,53.4,252.6
"2019-04-29 18:21:24+00",10.7,12.7,,49.9,370,-273,-10,1028.63,53.2,496.3
"2019-04-29 18:26:24+00",10.9,12.9,,50.1,435,-191,23,1028.57,53.5,378.9
"2019-04-29 18:31:24+00",8.8,9.8,,50,353,-158,-18,1028.43,53.5,441.7
"2019-04-29 18:36:24+00",9.9,10.9,,50.1,303,-295,20,1028.21,53.8,361.9
"2019-04-29 18:41:24+00",13.3,15.3,,50,500,-298,1,1028.05,53.8,443.3
"2019-04-29 18:46:24+00",11.5,13.5,,49.9,447,-222,-21,1027.96,53.9,454.6
"2019-04-29 18:51:24+00",10.1,12.1,,50,371,-242,-3,1027.99,54,477.3
"2019-04-29 18:56:24+00",11.5,13.5,,50.1,436,-249,-6,1027.87,54.1,464.1
"2019-04-29 19:01:24+00",13.0,14.0,,50,526,-229,-18,1027.66,54,294.7
"2019-04-29 19:06:24+00",11.9,13.9,,49.9,446,-256,-20,1027.51,53.6,355.3
"2019-04-29 19:11:24+00",11.3,12.3,,49.9,434,-239,-8,1027.65,53.5,279.7
"2019-04-29 19:16:24+00",9.7,11.7,,49.8,367,-212,-4,1027.54,53,185.5
"2019-04-29 19:21:24+00",12.4,14.4,,50,459,-287,-4,1027.28,53.4,389.8
"2019-04-29 19:26:24+00",10.3,12.3,,50.2,421,-173,61,1027.12,53.6,424.2
"2019-04-29 19:31:24+00",13.6,15.6,,50,584,-160,17,1026.93,53.6,213.6
"2019-04-29 19:36:24+00",12.6,14.6,,50,430,-340,-23,1026.89,53.2,202.2
"2019-04-29 19:41:24+00",11.0,13.0,,50,403,-269,3,1026.88,52.8,148.9
"2019-04-29 19:46:24+00",12.0,14.0,,50.3,442,-281,25,1026.83,53.2,415.2
"2019-04-29 19:51:24+00",11.2,12.2,,50.3,416,-250,-6,1026.78,53.6,336.4
"2019-04-29 19:56:24+00",10.2,11.2,,50.4,422,-157,32,1026.72,54,313.2
"2019-04-29 20:01:24+00",9.6,12.6,,50.2,422,-68,28,1026.58,54,339.6
"2019-04-29 20:06:24+00",12.1,14.1,,50.4,481,-235,-15,1026.42,54,324.1
"2019-04-29 20:11:24+00",11.8,13.8,,50.4,443,-263,-30,1026.3,54.1,342.6
"2019-04-29 20:16:24+00",13.9,14.9,,50.3,526,-298,-18,1026.21,54,290.6
"2019-04-29 20:21:24+00",13.2,15.2,,50.2,505,-279,-9,1026.09,53.5,314
"2019-04-29 20:26:24+00",12.1,13.1,,50.1,488,-197,-14,1026.09,53.4,300.7
"2019-04-29 20:31:24+00",12.7,14.7,,50.2,531,-184,-13,1026.11,53,151.4
"2019-04-29 20:36:24+00",12.4,14.4,,50.5,524,-181,31,1025.87,53.1,297
"2019-04-29 20:41:24+00",13.8,15.8,,50.4,555,-248,18,1025.7,53.3,199.8
"2019-04-29 20:46:24+00",14.7,16.7,,50.2,531,-363,-21,1025.74,52.9,277.5
"2019-04-29 20:51:24+00",14.0,15.0,,50.3,596,-171,-14,1025.77,53.1,269.2
"2019-04-29 20:56:24+00",15.1,17.1,,50.5,615,-261,-4,1025.46,53.2,256.4
"2019-04-29 21:01:24+00",13.1,16.1,,50.7,517,-260,20,1025.6,53.2,246.9
"2019-04-29 21:06:24+00",14.1,16.1,,50.6,507,-355,5,1025.64,53.5,235.4
"2019-04-29 21:11:24+00",13.4,15.4,,50.8,517,-275,-14,1025.51,53.7,224.8
"2019-04-29 21:16:24+00",13.8,14.8,,50.5,578,-182,19,1025.55,53.3,214.1
"2019-04-29 21:21:24+00",12.3,14.3,,50.7,433,-324,19,1025.68,53.3,189.3
"2019-04-29 21:26:24+00",14.0,15.0,,50.7,504,-351,-20,1025.53,53.3,179.8
"2019-04-29 21:31:24+00",13.3,14.3,,50.4,555,-199,-13,1025.45,53,133.3
"2019-04-29 21:36:24+00",12.7,13.7,,50.5,474,-295,5,1025.57,52.6,48.4
"2019-04-29 21:41:24+00",12.1,14.1,,50.5,484,-217,31,1025.57,52.3,35.4
"2019-04-29 21:46:24+00",13.5,14.5,,50.1,510,-296,-14,1025.64,51.9,21.6
"2019-04-29 21:51:24+00",10.9,13.9,,50.3,439,-203,38,1025.75,51.7,8.4
"2019-04-29 21:56:24+00",12.3,13.3,,50.2,519,-170,-4,1025.8,51.5,5.6
"2019-04-29 22:01:24+00",11.2,12.2,,50.3,459,-179,22,1025.81,51.4,2.3
"2019-04-29 22:06:24+00",12.1,13.1,,50.2,477,-219,-10,1025.83,51.3,0.1
"2019-04-29 22:11:24+00",10.5,12.5,,50.4,452,-139,11,1026.05,51.3,0
"2019-04-29 22:16:24+00",9.8,11.8,,50.3,416,-107,9,1025.93,51.3,0
"2019-04-29 22:21:24+00",9.9,11.9,,50.3,429,-94,16,1025.94,51.3,0
"2019-04-29 22:26:24+00",10.3,11.3,,50.2,449,-80,-3,1025.75,51.2,0
"2019-04-29 22:31:24+00",10.0,11.0,,50.3,427,-120,12,1025.66,51.2,0
"2019-04-29 22:36:24+00",10.4,11.4,,50.4,462,-13,20,1025.77,51.3,0
"2019-04-29 22:41:24+00",10.3,11.3,,50.5,457,-23,43,1025.73,51.3,0
"2019-04-29 22:46:24+00",8.5,10.5,,50.4,371,-22,17,1025.93,51.3,0
"2019-04-29 22:51:24+00",8.8,9.8,,50.4,392,34,36,1025.85,51.3,0
"2019-04-29 22:56:24+00",9.9,10.9,,50.5,445,17,21,1025.63,51.3,0
"2019-04-29 23:01:24+00",9.4,10.4,,50.5,419,26,28,1025.57,51.3,0
"2019-04-29 23:06:24+00",10.4,11.4,,50.4,463,45,13,1025.46,51.3,0
"2019-04-29 23:11:24+00",11.7,11.7,,50.4,523,7,12,1025.37,51.2,0
"2019-04-29 23:16:24+00",10.1,12.1,,50.6,452,19,33,1025.41,51.3,0
"2019-04-29 23:21:24+00",9.3,10.3,,50.6,420,27,44,1025.4,51.2,0
"2019-04-29 23:26:24+00",9.2,11.2,,50.6,400,100,11,1025.54,51.2,0
"2019-04-29 23:31:24+00",9.2,10.2,,50.6,403,74,35,1025.64,51.2,0
"2019-04-29 23:36:24+00",9.8,9.8,,50.6,436,-5,14,1025.61,51.2,0
"2019-04-29 23:41:24+00",10.2,11.2,,50.6,441,101,19,1025.62,51.2,0
"2019-04-29 23:46:24+00",10.3,11.3,,50.5,453,10,31,1025.48,51.1,0
"2019-04-29 23:51:24+00",10.9,11.9,,50.5,478,81,24,1025.61,51.1,0
"2019-04-29 23:56:24+00",9.8,10.8,,50.4,434,59,25,1025.54,51,0
